Weather History for Oroville, CA

Change the Weather History Date:

Thursday, November 1, 2012

  Actual Average Record
Temperature  
Mean Temperature 60 °F -  
Max Temperature 66 °F 72 °F 86 °F (1966)
Min Temperature 53 °F 45 °F 32 °F (1991)
Degree Days  
Heating Degree Days 6    
Growing Degree Days 10 (Base 50)    
Moisture  
Dew Point 56 °F    
Average Humidity 91    
Maximum Humidity 100    
Minimum Humidity 68    
Precipitation  
Precipitation 0.12 in - - ()
Sea Level Pressure  
Sea Level Pressure 30.03 in    
Wind  
Wind Speed 6 mph (SE)    
Max Wind Speed 13 mph    
Max Gust Speed -    
Visibility 9 miles    
Events Rain    
Averages and records for this station are not official NWS values.
T = Trace of Precipitation, MM = Missing Value Source: NWS Daily Summary

Daily Weather History Graph

Daily Weather History Graph

Search for Another Location

Airport:

Trip Planner

Search our weather history database for the weather conditions in past years. The results will help you decide how hot, cold, wet, or windy it might be!

Date:

Astronomy

Nov. 01, 2012 Rise Set
Actual Time 7:35 AM PDT 6:04 PM PDT
Civil Twilight 7:07 AM PDT 6:32 PM PDT
Nautical Twilight 6:35 AM PDT 7:03 PM PDT
Astronomical Twilight 6:04 AM PDT 7:35 PM PDT
Moon 8:06 PM PDT (11/1) 10:11 AM PDT (11/1)
Length of Visible Light 11h 24m
Length of Day
10h 28m
Waning Gibbous, 92% of the Moon is Illuminated
Nov 1
Waning Gibbous
Nov 6
Last Quarter
Nov 13
New
Nov 20
First Quarter
Nov 28
Full

Hourly Weather History & Observations

Time (PDT) Temp. Dew Point Humidity Pressure Visibility Wind Dir Wind Speed Gust Speed Precip Events Conditions
12:53 AM 57.0 °F 57.0 °F 100% 30.02 in 7.0 mi SE 6.9 mph - 0.01 in Rain Light Rain
1:39 AM 57.0 °F 57.0 °F 100% 30.01 in 5.0 mi South 4.6 mph - 0.04 in Rain Light Rain
2:03 AM 57.0 °F 57.0 °F 100% 30.01 in 2.5 mi SE 5.8 mph - 0.02 in Rain Light Rain
2:21 AM 57.0 °F 57.0 °F 100% 30.01 in 3.0 mi SE 5.8 mph - 0.06 in Rain Light Rain
2:38 AM 57.0 °F 57.0 °F 100% 30.01 in 2.5 mi SE 5.8 mph - 0.08 in Rain Light Rain
2:53 AM 57.0 °F 57.0 °F 100% 30.02 in 3.0 mi ESE 6.9 mph - 0.10 in Rain Light Rain
3:28 AM 57.0 °F 57.0 °F 100% 30.01 in 9.0 mi ESE 8.1 mph - 0.00 in   Overcast
3:47 AM 57.2 °F 57.2 °F 100% 30.01 in 7.0 mi ESE 5.8 mph - 0.00 in Rain Light Rain
3:53 AM 57.0 °F 57.0 °F 100% 30.01 in 6.0 mi ESE 6.9 mph - 0.00 in Rain Light Rain
4:49 AM 55.4 °F 55.4 °F 100% 30.01 in 10.0 mi SSE 9.2 mph - 0.01 in   Overcast
4:53 AM 55.9 °F 55.9 °F 100% 30.02 in 10.0 mi SSE 12.7 mph - 0.01 in   Overcast
5:03 AM 55.9 °F 55.9 °F 100% 30.01 in 10.0 mi SE 11.5 mph - N/A   Overcast
5:22 AM 55.9 °F 55.9 °F 100% 30.01 in 10.0 mi SE 12.7 mph - N/A   Overcast
5:53 AM 55.9 °F 55.9 °F 100% 30.02 in 10.0 mi SE 10.4 mph - N/A   Overcast
6:53 AM 57.0 °F 55.9 °F 96% 30.02 in 10.0 mi SE 8.1 mph - N/A   Overcast
7:53 AM 57.0 °F 55.9 °F 96% 30.03 in 10.0 mi SSE 8.1 mph - N/A   Overcast
8:34 AM 57.9 °F 57.0 °F 97% 30.04 in 10.0 mi ESE 4.6 mph - N/A   Overcast
8:53 AM 59.0 °F 57.0 °F 93% 30.05 in 10.0 mi ESE 4.6 mph - N/A   Overcast
9:53 AM 59.0 °F 57.0 °F 93% 30.06 in 10.0 mi SE 4.6 mph - N/A   Overcast
11:31 AM 61.0 °F 57.0 °F 87% 30.05 in 10.0 mi South 5.8 mph - N/A   Overcast
11:53 AM 62.1 °F 57.0 °F 84% 30.06 in 10.0 mi Variable 5.8 mph - N/A   Mostly Cloudy
12:00 PM 63.0 °F 57.9 °F 84% 30.05 in 10.0 mi SSW 4.6 mph - N/A   Partly Cloudy
12:53 PM 63.0 °F 57.0 °F 81% 30.05 in 10.0 mi SSW 3.5 mph - N/A   Scattered Clouds
1:53 PM 66.0 °F 57.0 °F 73% 30.04 in 10.0 mi WNW 4.6 mph - N/A   Scattered Clouds
2:39 PM 64.9 °F 55.0 °F 70% 30.03 in 10.0 mi WNW 5.8 mph - N/A   Mostly Cloudy
2:50 PM 66.2 °F 55.4 °F 68% 30.02 in 10.0 mi NW 3.5 mph - N/A   Scattered Clouds
2:53 PM 64.9 °F 55.0 °F 70% 30.03 in 10.0 mi West 5.8 mph - N/A   Scattered Clouds
3:53 PM 66.0 °F 55.9 °F 70% 30.03 in 10.0 mi NW 4.6 mph - N/A   Clear
4:53 PM 64.9 °F 55.0 °F 70% 30.03 in 10.0 mi WNW 4.6 mph - N/A   Clear
5:53 PM 63.0 °F 55.0 °F 75% 30.03 in 10.0 mi Calm Calm - N/A   Clear
6:53 PM 60.1 °F 55.0 °F 83% 30.04 in 10.0 mi Calm Calm - N/A   Clear
7:53 PM 57.9 °F 54.0 °F 87% 30.04 in 10.0 mi NNE 3.5 mph - N/A   Clear
8:53 PM 55.0 °F 54.0 °F 96% 30.05 in 10.0 mi NNE 3.5 mph - N/A   Clear
9:53 PM 54.0 °F 53.1 °F 97% 30.06 in 10.0 mi NE 3.5 mph - N/A   Clear
10:53 PM 53.1 °F 52.0 °F 96% 30.06 in 10.0 mi NE 4.6 mph - N/A   Clear
11:53 PM 54.0 °F 53.1 °F 97% 30.06 in 10.0 mi NW 3.5 mph - N/A   Clear